Voltar ao catálogo

CZ-6A DEB

AtivoPO
NORAD 54888·DEBRIS·🇨🇳 China

Lançado Nov 11, 2022 de Taiyuan Satellite Launch Center

Loading…

Próximas Passagens (próximas 24 horas)

TLE

AtualizadoSource: Space-Track

Época: Sep 14, 2026, 06:53 UTC

1 54888U 22151PZ  26257.28698063  .00028954  00000-0  20080-2 0  9998
2 54888  98.6360   7.8468 0054139 229.0880 130.5648 15.04357615205170

Acompanhe CZ-6A DEB em tempo real com AllMySat

Download on the App Store